| time (UTC) | temp F | wind direction | speed knots | gust knots | rain 1hr in | rain 24hr in | rain mn in | humidity % | barometer mb |
| 20260903081554 | 33 | 355 | 0.0 | 0.0 | 0.00 | 0.01 | 0.00 | 83 | 1021.9 |
| 20260903080044 | 33 | 356 | 0.0 | 0.0 | 0.00 | 0.01 | 0.00 | 88 | 1021.7 |
| 20260903074558 | 33 | 356 | 0.0 | 0.9 | 0.00 | 0.01 | 0.01 | 80 | 1021.4 |
| 20260903073053 | 36 | 356 | 0.0 | 0.0 | 0.00 | 0.01 | 0.01 | 81 | 1021.5 |
| 20260903071610 | 36 | 355 | 0.0 | 0.9 | 0.00 | 0.01 | 0.01 | 79 | 1021.3 |
| 20260903070104 | 37 | 5 | 0.9 | 1.7 | 0.00 | 0.01 | 0.01 | 72 | 1021.2 |
| 20260903064604 | 36 | 327 | 0.0 | 1.7 | 0.00 | 0.01 | 0.01 | 66 | 1020.9 |
| 20260903063045 | 38 | 192 | 0.0 | 1.7 | 0.00 | 0.01 | 0.01 | 63 | 1020.5 |
| 20260903061603 | 40 | 349 | 0.0 | 1.7 | 0.00 | 0.01 | 0.01 | 59 | 1020.1 |
| 20260903060050 | 41 | 286 | 0.0 | 0.9 | 0.00 | 0.01 | 0.01 | 53 | 1020.0 |
| 20260903054548 | 42 | 286 | 0.0 | 0.9 | 0.00 | 0.01 | 0.01 | 51 | 1019.8 |
| 20260903053056 | 43 | 288 | 0.0 | 1.7 | 0.00 | 0.01 | 0.01 | 48 | 1019.6 |
| 20260903051553 | 44 | 272 | 0.0 | 2.6 | 0.00 | 0.01 | 0.01 | 44 | 1019.4 |
| 20260903050100 | 45 | 257 | 0.0 | 0.9 | 0.00 | 0.01 | 0.01 | 42 | 1019.3 |
| 20260903044602 | 47 | 257 | 0.0 | 0.9 | 0.00 | 0.01 | 0.01 | 40 | 1019.1 |
| 20260903043052 | 50 | 257 | 0.9 | 1.7 | 0.00 | 0.01 | 0.01 | 37 | 1018.9 |
| 20260903041558 | 52 | 262 | 0.9 | 3.5 | 0.00 | 0.01 | 0.01 | 34 | 1018.8 |
| 20260903040109 | 53 | 274 | 0.9 | 5.2 | 0.00 | 0.01 | 0.01 | 33 | 1018.6 |
| 20260903034606 | 55 | 268 | 2.6 | 7.0 | 0.00 | 0.01 | 0.01 | 31 | 1018.4 |
| 20260903033045 | 56 | 266 | 1.7 | 5.2 | 0.00 | 0.01 | 0.01 | 33 | 1018.2 |
| 20260903031503 | 57 | 301 | 4.3 | 8.7 | 0.00 | 0.01 | 0.01 | 34 | 1017.9 |
| 20260903030053 | 58 | 262 | 1.7 | 6.1 | 0.00 | 0.01 | 0.01 | 36 | 1017.8 |
| 20260903024505 | 58 | 320 | 0.9 | 11.3 | 0.00 | 0.01 | 0.01 | 45 | 1017.5 |
| 20260903023100 | 59 | 68 | 0.0 | 2.6 | 0.00 | 0.01 | 0.01 | 45 | 1017.4 |
| 20260903021555 | 59 | 165 | 2.6 | 5.2 | 0.00 | 0.01 | 0.01 | 38 | 1017.1 |
| 20260903014619 | 59 | 69 | 0.9 | 4.3 | 0.00 | 0.01 | 0.01 | 44 | 1017.2 |
| 20260903013101 | 59 | 116 | 0.9 | 4.3 | 0.00 | 0.01 | 0.01 | 46 | 1016.9 |
| 20260903011549 | 59 | 248 | 0.9 | 7.0 | 0.00 | 0.01 | 0.01 | 48 | 1016.8 |
| 20260903010058 | 58 | 73 | 0.9 | 4.3 | 0.00 | 0.01 | 0.01 | 49 | 1016.7 |
| 20260903004558 | 58 | 46 | 1.7 | 6.1 | 0.00 | 0.01 | 0.01 | 49 | 1016.6 |
| 20260903003105 | 57 | 25 | 2.6 | 5.2 | 0.00 | 0.01 | 0.01 | 52 | 1016.5 |
| 20260903001501 | 56 | 77 | 0.9 | 6.1 | 0.00 | 0.01 | 0.01 | 55 | 1016.3 |
| 20260902234552 | 55 | 72 | 0.9 | 5.2 | 0.00 | 0.01 | 0.01 | 57 | 1016.4 |
| 20260902233101 | 56 | 37 | 2.6 | 6.1 | 0.00 | 0.01 | 0.01 | 57 | 1016.2 |
| 20260902231555 | 54 | 85 | 1.7 | 6.1 | 0.00 | 0.01 | 0.01 | 60 | 1016.0 |
| 20260902230049 | 54 | 101 | 1.7 | 5.2 | 0.00 | 0.01 | 0.01 | 62 | 1015.9 |
| 20260902224507 | 53 | 136 | 1.7 | 5.2 | 0.00 | 0.01 | 0.01 | 65 | 1015.9 |
| 20260902223107 | 53 | 196 | 1.7 | 5.2 | 0.00 | 0.01 | 0.01 | 66 | 1015.6 |
| 20260902221549 | 52 | 71 | 1.7 | 4.3 | 0.00 | 0.01 | 0.01 | 70 | 1015.8 |
| 20260902220101 | 52 | 195 | 1.7 | 6.1 | 0.00 | 0.01 | 0.01 | 69 | 1015.7 |
| 20260902214620 | 52 | 167 | 1.7 | 2.6 | 0.00 | 0.01 | 0.01 | 71 | 1015.7 |
| 20260902213051 | 50 | 217 | 0.9 | 5.2 | 0.00 | 0.01 | 0.01 | 74 | 1015.5 |
| 20260902211501 | 50 | 125 | 1.7 | 3.5 | 0.00 | 0.01 | 0.01 | 75 | 1015.5 |
| 20260902210055 | 48 | 68 | 1.7 | 3.5 | 0.00 | 0.01 | 0.01 | 77 | 1015.5 |
| 20260902204550 | 47 | 211 | 0.9 | 3.5 | 0.00 | 0.01 | 0.01 | 82 | 1015.3 |
| 20260902203002 | 45 | 309 | 0.0 | 2.6 | 0.00 | 0.01 | 0.01 | 83 | 1015.3 |
| 20260902201500 | 44 | 195 | 0.9 | 2.6 | 0.00 | 0.01 | 0.01 | 86 | 1015.1 |
| 20260902200150 | 41 | 227 | 0.9 | 3.5 | 0.00 | 0.01 | 0.01 | 91 | 1014.8 |
| 20260902194503 | 39 | 232 | 0.9 | 3.5 | 0.00 | 0.01 | 0.01 | 93 | 1014.6 |
| 20260902193056 | 38 | 266 | 1.7 | 5.2 | 0.01 | 0.01 | 0.01 | 93 | 1014.5 |
| 20260902191550 | 37 | 229 | 1.7 | 4.3 | 0.01 | 0.01 | 0.01 | 93 | 1014.3 |
| 20260902190144 | 37 | 80 | 0.0 | 2.6 | 0.01 | 0.01 | 0.01 | 92 | 1013.5 |
| 20260902184501 | 38 | 210 | 0.0 | 1.7 | 0.00 | 0.00 | 0.00 | 88 | 1013.9 |
| 20260902183052 | 39 | 250 | 0.0 | 0.0 | 0.00 | 0.00 | 0.00 | 87 | 1013.5 |
| 20260902181549 | 38 | 251 | 0.0 | 1.7 | 0.00 | 0.00 | 0.00 | 86 | 1013.2 |
| 20260902180005 | 37 | 253 | 0.0 | 0.9 | 0.00 | 0.00 | 0.00 | 88 | 1012.8 |
| 20260902174556 | 37 | 241 | 0.9 | 1.7 | 0.00 | 0.00 | 0.00 | 89 | 1012.6 |
| 20260902173050 | 36 | 269 | 0.0 | 1.7 | 0.00 | 0.00 | 0.00 | 91 | 1012.4 |
| 20260902171501 | 35 | 266 | 0.0 | 0.9 | 0.00 | 0.00 | 0.00 | 90 | 1012.2 |
| 20260902170054 | 35 | 113 | 0.0 | 1.7 | 0.00 | 0.00 | 0.00 | 90 | 1011.9 |
| 20260902164553 | 34 | 227 | 0.0 | 0.0 | 0.00 | 0.00 | 0.00 | 93 | 1011.9 |
| 20260902163059 | 33 | 116 | 0.0 | 0.0 | 0.00 | 0.00 | 0.00 | 94 | 1011.6 |
| 20260902161551 | 31 | 245 | 0.0 | 0.0 | 0.00 | 0.00 | 0.00 | 96 | 1011.5 |
| 20260902160050 | 29 | 245 | 0.0 | 0.0 | 0.00 | 0.00 | 0.00 | 95 | 1011.4 |
| 20260902154604 | 28 | 245 | 0.0 | 0.0 | 0.00 | 0.00 | 0.00 | 95 | 1011.3 |
| 20260902153056 | 28 | 246 | 0.0 | 0.0 | 0.00 | 0.00 | 0.00 | 95 | 1010.9 |
| 20260902151549 | 27 | 245 | 0.0 | 0.0 | 0.00 | 0.00 | 0.00 | 96 | 1011.0 |
| 20260902150001 | 27 | 245 | 0.0 | 0.0 | 0.00 | 0.00 | 0.00 | 96 | 1010.8 |
| 20260902144516 | 27 | 245 | 0.0 | 0.0 | 0.00 | 0.00 | 0.00 | 96 | 1010.6 |
| 20260902143052 | 27 | 245 | 0.0 | 0.0 | 0.00 | 0.00 | 0.00 | 96 | 1010.6 |
| 20260902141545 | 26 | 245 | 0.0 | 0.0 | 0.00 | 0.00 | 0.00 | 95 | 1010.4 |
| 20260902140043 | 26 | 245 | 0.0 | 0.0 | 0.00 | 0.00 | 0.00 | 95 | 1010.4 |
| 20260902134554 | 26 | 245 | 0.0 | 0.0 | 0.00 | 0.00 | 0.00 | 96 | 1010.2 |
| 20260902133056 | 26 | 245 | 0.0 | 0.0 | 0.00 | 0.00 | 0.00 | 96 | 1010.2 |
| 20260902131504 | 25 | 245 | 0.0 | 0.0 | 0.00 | 0.00 | 0.00 | 94 | 1010.1 |
| 20260902130054 | 25 | 245 | 0.0 | 0.0 | 0.00 | 0.00 | 0.00 | 95 | 1009.9 |
| 20260902124551 | 26 | 245 | 0.0 | 0.0 | 0.00 | 0.00 | 0.00 | 95 | 1009.7 |
| 20260902123105 | 26 | 245 | 0.0 | 0.0 | 0.00 | 0.00 | 0.00 | 95 | 1009.6 |
| 20260902121605 | 27 | 245 | 0.0 | 0.0 | 0.00 | 0.00 | 0.00 | 95 | 1009.6 |
| 20260902120047 | 28 | 245 | 0.0 | 0.0 | 0.00 | 0.00 | 0.00 | 95 | 1009.6 |
| 20260902114502 | 29 | 245 | 0.0 | 0.0 | 0.00 | 0.00 | 0.00 | 96 | 1009.5 |
| 20260902113059 | 28 | 245 | 0.0 | 0.0 | 0.00 | 0.00 | 0.00 | 94 | 1009.6 |
| 20260902111549 | 28 | 245 | 0.0 | 0.0 | 0.00 | 0.00 | 0.00 | 95 | 1009.7 |
| 20260902110001 | 29 | 239 | 0.0 | 0.0 | 0.00 | 0.00 | 0.00 | 96 | 1009.6 |
| 20260902104608 | 28 | 239 | 0.0 | 0.0 | 0.00 | 0.00 | 0.00 | 93 | 1009.6 |
| 20260902103051 | 28 | 239 | 0.0 | 0.0 | 0.00 | 0.00 | 0.00 | 94 | 1009.4 |
| 20260902101501 | 29 | 239 | 0.0 | 0.0 | 0.00 | 0.00 | 0.00 | 94 | 1009.5 |
| 20260902100049 | 29 | 239 | 0.0 | 0.0 | 0.00 | 0.00 | 0.00 | 92 | 1009.3 |
| 20260902094550 | 29 | 239 | 0.0 | 0.0 | 0.00 | 0.00 | 0.00 | 90 | 1009.5 |
| 20260902093056 | 29 | 239 | 0.0 | 0.0 | 0.00 | 0.00 | 0.00 | 91 | 1009.3 |
| 20260902091600 | 31 | 239 | 0.0 | 0.0 | 0.00 | 0.00 | 0.00 | 93 | 1009.2 |
| 20260902090044 | 31 | 239 | 0.0 | 0.0 | 0.00 | 0.00 | 0.00 | 90 | 1009.3 |
| 20260902084606 | 32 | 239 | 0.0 | 0.0 | 0.00 | 0.00 | 0.00 | 92 | 1009.3 |
| 20260902083111 | 30 | 239 | 0.0 | 0.0 | 0.00 | 0.00 | 0.00 | 93 | 1009.4 |